| time (UTC) | temp F | wind direction | speed knots | gust knots | rain 1hr in | rain 24hr in | rain mn in | humidity % | barometer mb |
| 20260508114531 | 45 | 159 | 0.9 | 3.5 | 0.00 | 0.00 | 0.00 | 84 | 1018.5 |
| 20260508111605 | 44 | 173 | 0.0 | 2.6 | 0.00 | 0.00 | 0.00 | 85 | 1018.3 |
| 20260508110030 | 44 | 184 | 0.0 | 1.7 | 0.00 | 0.00 | 0.00 | 84 | 1018.2 |
| 20260508104609 | 44 | 163 | 0.0 | 2.6 | 0.00 | 0.00 | 0.00 | 84 | 1018.3 |
| 20260508103145 | 44 | 178 | 0.0 | 2.6 | 0.00 | 0.00 | 0.00 | 82 | 1018.2 |
| 20260508100033 | 44 | 177 | 0.0 | 2.6 | 0.00 | 0.00 | 0.00 | 83 | 1018.2 |
| 20260508093032 | 45 | 197 | 0.0 | 1.7 | 0.00 | 0.00 | 0.00 | 80 | 1018.1 |
| 20260508091530 | 46 | 170 | 0.0 | 1.7 | 0.00 | 0.00 | 0.00 | 78 | 1018.0 |
| 20260508090109 | 46 | 181 | 0.0 | 3.5 | 0.00 | 0.00 | 0.00 | 77 | 1018.0 |
| 20260508084532 | 46 | 162 | 0.0 | 2.6 | 0.00 | 0.00 | 0.00 | 76 | 1018.0 |
| 20260508083031 | 47 | 186 | 0.9 | 2.6 | 0.00 | 0.00 | 0.00 | 74 | 1018.0 |
| 20260508081529 | 48 | 174 | 0.9 | 2.6 | 0.00 | 0.00 | 0.00 | 72 | 1018.0 |
| 20260508073033 | 48 | 162 | 1.7 | 4.3 | 0.00 | 0.00 | 0.00 | 69 | 1018.0 |
| 20260508063147 | 52 | 185 | 0.0 | 1.7 | 0.00 | 0.00 | 0.00 | 57 | 1018.1 |
| 20260508061603 | 54 | 169 | 0.0 | 2.6 | 0.00 | 0.00 | 0.00 | 53 | 1018.1 |
| 20260508060144 | 55 | 242 | 1.7 | 4.3 | 0.00 | 0.00 | 0.00 | 50 | 1018.1 |
| 20260508054531 | 56 | 254 | 1.7 | 4.3 | 0.00 | 0.00 | 0.00 | 48 | 1018.1 |
| 20260508053028 | 55 | 230 | 0.9 | 6.1 | 0.00 | 0.00 | 0.00 | 51 | 1018.2 |
| 20260508050029 | 52 | 230 | 0.0 | 3.5 | 0.00 | 0.00 | 0.00 | 58 | 1018.0 |
| 20260508044603 | 52 | 167 | 0.0 | 1.7 | 0.00 | 0.00 | 0.00 | 57 | 1018.0 |
| 20260508043102 | 53 | 187 | 0.0 | 2.6 | 0.00 | 0.00 | 0.00 | 56 | 1017.9 |
| 20260508041529 | 55 | 171 | 0.9 | 2.6 | 0.00 | 0.00 | 0.00 | 51 | 1017.8 |
| 20260508040030 | 57 | 185 | 0.0 | 1.7 | 0.00 | 0.00 | 0.00 | 50 | 1017.7 |
| 20260508034533 | 59 | 176 | 0.0 | 2.6 | 0.00 | 0.00 | 0.00 | 42 | 1017.6 |
| 20260508033030 | 61 | 217 | 0.0 | 1.7 | 0.00 | 0.00 | 0.00 | 37 | 1017.5 |
| 20260508024603 | 67 | 283 | 0.0 | 2.6 | 0.00 | 0.00 | 0.00 | 30 | 1017.0 |
| 20260508023030 | 69 | 335 | 0.0 | 5.2 | 0.00 | 0.00 | 0.00 | 28 | 1016.9 |
| 20260508021530 | 70 | 165 | 0.0 | 8.7 | 0.00 | 0.00 | 0.00 | 27 | 1016.8 |
| 20260508013031 | 72 | 62 | 0.0 | 10.4 | 0.00 | 0.00 | 0.00 | 26 | 1016.8 |
| 20260508004529 | 72 | 2 | 0.9 | 9.6 | 0.00 | 0.00 | 0.00 | 23 | 1016.8 |
| 20260508003028 | 73 | 292 | 1.7 | 12.2 | 0.00 | 0.00 | 0.00 | 23 | 1016.8 |
| 20260508001533 | 73 | 290 | 0.9 | 6.1 | 0.00 | 0.00 | 0.00 | 24 | 1016.7 |
| 20260508000032 | 73 | 347 | 1.7 | 7.8 | 0.00 | 0.00 | 0.00 | 24 | 1016.7 |
| 20260507233031 | 72 | 350 | 0.9 | 9.6 | 0.00 | 0.00 | 0.00 | 28 | 1016.8 |
| 20260507231532 | 71 | 322 | 1.7 | 8.7 | 0.00 | 0.00 | 0.00 | 29 | 1017.0 |
| 20260507230031 | 71 | 302 | 1.7 | 14.8 | 0.00 | 0.00 | 0.00 | 30 | 1017.0 |
| 20260507224526 | 72 | 344 | 0.9 | 7.0 | 0.00 | 0.00 | 0.00 | 30 | 1017.1 |
| 20260507223031 | 73 | 336 | 0.9 | 5.2 | 0.00 | 0.00 | 0.00 | 33 | 1017.2 |
| 20260507221532 | 73 | 8 | 0.9 | 6.1 | 0.00 | 0.00 | 0.00 | 34 | 1017.4 |
| 20260507220027 | 72 | 48 | 0.0 | 5.2 | 0.00 | 0.00 | 0.00 | 36 | 1017.6 |
| 20260507213029 | 70 | 287 | 1.7 | 7.8 | 0.00 | 0.00 | 0.00 | 41 | 1017.8 |
| 20260507211540 | 70 | 273 | 1.7 | 7.8 | 0.00 | 0.00 | 0.00 | 44 | 1017.9 |
| 20260507204604 | 70 | 261 | 0.9 | 7.8 | 0.00 | 0.00 | 0.00 | 45 | 1018.0 |
| 20260507201531 | 70 | 271 | 0.9 | 9.6 | 0.00 | 0.00 | 0.00 | 45 | 1018.4 |
| 20260507200027 | 70 | 344 | 0.9 | 6.1 | 0.00 | 0.00 | 0.00 | 46 | 1018.6 |
| 20260507194530 | 70 | 309 | 0.0 | 4.3 | 0.00 | 0.00 | 0.00 | 47 | 1018.7 |
| 20260507191528 | 70 | 329 | 0.9 | 6.1 | 0.00 | 0.00 | 0.00 | 48 | 1019.1 |
| 20260507184529 | 71 | 350 | 0.0 | 4.3 | 0.00 | 0.00 | 0.00 | 49 | 1019.5 |
| 20260507183044 | 69 | 8 | 0.0 | 3.5 | 0.00 | 0.00 | 0.00 | 51 | 1019.6 |
| 20260507181531 | 68 | 353 | 0.0 | 6.1 | 0.00 | 0.00 | 0.00 | 52 | 1019.7 |
| 20260507180029 | 67 | 84 | 0.0 | 4.3 | 0.00 | 0.00 | 0.00 | 54 | 1019.7 |
| 20260507174530 | 64 | 278 | 0.0 | 3.5 | 0.00 | 0.00 | 0.00 | 55 | 1020.0 |
| 20260507171533 | 64 | 257 | 0.9 | 10.4 | 0.00 | 0.00 | 0.00 | 56 | 1020.3 |
| 20260507170029 | 62 | 262 | 0.0 | 6.1 | 0.00 | 0.00 | 0.00 | 59 | 1020.4 |
| 20260507164531 | 63 | 23 | 0.9 | 6.1 | 0.00 | 0.00 | 0.00 | 60 | 1020.4 |
| 20260507163110 | 62 | 25 | 0.0 | 4.3 | 0.00 | 0.00 | 0.00 | 61 | 1020.6 |
| 20260507161532 | 60 | 360 | 0.9 | 5.2 | 0.00 | 0.00 | 0.00 | 62 | 1020.6 |
| 20260507160031 | 60 | 354 | 0.9 | 5.2 | 0.00 | 0.00 | 0.00 | 62 | 1020.8 |
| 20260507154606 | 60 | 39 | 0.0 | 4.3 | 0.00 | 0.00 | 0.00 | 63 | 1020.9 |
| 20260507153031 | 58 | 333 | 0.9 | 5.2 | 0.00 | 0.00 | 0.00 | 66 | 1020.9 |
| 20260507151530 | 58 | 272 | 0.9 | 5.2 | 0.00 | 0.00 | 0.00 | 67 | 1021.1 |
| 20260507150035 | 56 | 300 | 0.9 | 5.2 | 0.00 | 0.00 | 0.00 | 70 | 1021.2 |
| 20260507143030 | 54 | 306 | 0.9 | 4.3 | 0.00 | 0.00 | 0.00 | 73 | 1021.2 |
| 20260507141530 | 53 | 20 | 2.6 | 9.6 | 0.00 | 0.00 | 0.00 | 75 | 1021.0 |
| 20260507140031 | 52 | 75 | 0.9 | 6.1 | 0.00 | 0.00 | 0.00 | 80 | 1020.7 |
| 20260507133028 | 49 | 159 | 0.0 | 2.6 | 0.00 | 0.00 | 0.00 | 84 | 1020.4 |
| 20260507131554 | 50 | 125 | 0.0 | 3.5 | 0.00 | 0.00 | 0.00 | 82 | 1020.4 |
| 20260507130030 | 52 | 193 | 0.9 | 5.2 | 0.00 | 0.00 | 0.00 | 78 | 1020.3 |
| 20260507124530 | 53 | 209 | 1.7 | 5.2 | 0.00 | 0.00 | 0.00 | 77 | 1020.3 |
| 20260507121530 | 54 | 232 | 0.9 | 5.2 | 0.00 | 0.00 | 0.00 | 76 | 1020.3 |